Regional Weather Roundup
Issued by NWS Cleveland, OH

Home | Current Version | Previous Version | Text Only | Print | Product List | Glossary Off
Versions: 1 2 3 4 5 6 7 8 9 10 11 12 13 14 15 16 17 18 19 20 21 22 23 24 25 26 27 28 29 30 31 32 33 34 35 36 37 38 39 40 41 42 43 44 45 46 47 48 49 50

000
ASUS41 KCLE 100302
RWRCLE
OHIO REGIONAL WEATHER ROUNDUP
NATIONAL WEATHER SERVICE CLEVELAND, OH
1100 PM EDT WED JUL 09 2014

NOTE: "FAIR" INDICATES FEW OR NO CLOUDS BELOW 12,000 FEET WITH NO
SIGNIFICANT WEATHER AND/OR OBSTRUCTIONS TO VISIBILITY.

OHZ001>008-015>018-024>027-034-035-043-044-100400-
   NORTHWEST OHIO

CITY           SKY/WX    TMP DP  RH WIND       PRES   REMARKS
DEFIANCE       CLEAR     66  55  67 NW5       30.03R
FINDLAY        CLEAR     68  57  68 NW5       30.01R
TOLEDO EXPRESS CLEAR     67  57  70 NW3       30.01R
TOLEDO EXEC    CLEAR     70  55  59 N3        30.02R
LIMA           MOCLDY    70  57  63 N6        30.02R
$$

OHZ009>014-019>023-028>033-038-089-100400-
   NORTHEAST OHIO

CITY           SKY/WX    TMP DP  RH WIND       PRES   REMARKS
CLE-HOPKINS    PTCLDY    67  60  78 E3        30.04R
CLE-LAKEFRONT  CLEAR     69  61  75 E3        30.00R
CUY CO. ARPT   CLEAR     64  63  94 SE6       30.02R
LORAIN-ELYRIA  CLEAR     67  61  81 E3        30.02R
ASHTABULA      CLEAR     59  56  89 CALM      30.04R
AKRON-CANTON   PTCLDY    65  59  81 CALM      30.02R
WOOSTER        CLEAR     63  60  90 CALM      30.03R
MANSFIELD      CLOUDY    64  62  93 S3        30.03R
YOUNGSTOWN     MOCLDY    63  60  90 CALM      30.03R
$$

OHZ042-051>053-060>062-070>072-077>081-100400-
  SOUTHWEST OHIO

CITY           SKY/WX    TMP DP  RH WIND       PRES   REMARKS
CINC-COVINGTON PTCLDY    70  59  68 CALM      30.02R
CINC-LUNKEN    MOCLDY    68  63  84 CALM      30.01R
HAMILTON       CLEAR     66  63  90 CALM      30.02R
DAYTON         CLEAR     69  59  70 NW3       30.04R
WRIGHT-PAT AFB CLEAR     71  60  69 NW6       30.02R
DAYTON GENERAL CLEAR     73  60  63 NW5       30.02R
WILMINGTON     PTCLDY    72  59  63 W3        30.02R
$$

OHZ036-037-039>041-045>050-054>059-063>069-073>076-082>088-100400-
  CENTRAL AND SOUTHEAST OHIO

CITY           SKY/WX    TMP DP  RH WIND       PRES   REMARKS
COLUMBUS       MOCLDY    74  59  59 CALM      30.00R
OSU AIRPORT    PTCLDY    70  60  70 NW7       30.01R
BOLTON FIELD   PTCLDY    69  61  76 W3        30.01R
RICKENBACK AFB CLEAR     73  57  56 NW5       29.99S
NEWARK         PTCLDY    65  61  87 NW3       30.00R
MARION         MOCLDY    68  65  90 CALM      30.02R
LANCASTER      CLEAR     65  62  90 SE3       30.00R
ZANESVILLE     PTCLDY    70  59  68 CALM      30.01R
NEW PHILLY     PTCLDY    66  62  87 CALM      30.02R
$$



USA.gov is the U.S. government's official web portal to all federal, state and local government web resources and services.